Vertical_Velocity
-2 -1 -0 -1 -3 -0 0 0 -1 2 2 0 1 1 1 3 1 -0 -1 -1 -0 -1 0 -0 -1 -0 2 0 -1 -2 -0 -1 -1 1 -1 0 1 -0 -2 -1 -1 -0 1 0 -0 -0 0 -1 -0
0 -0 -1 -1 -2 -1 1 1 0 0 2 1 -0 1 1 1 1 2 -1 -1 -1 -0 -0 -1 -0 -2 -1 0 -1 -1 -2 -1 -1 0 -1 -0 1 1 -0 -0 -0 2 1 2 -2 -0 0 0 0
-1 -1 -1 -1 -0 3 2 -1 2 -1 0 1 -0 2 1 2 2 0 -1 -3 -2 2 -1 -2 0 1 -1 1 -2 -0 -0 -1 -2 -2 1 -1 1 1 1 1 -1 -3 1 1 3 -1 1 0 0
-1 0 -3 -1 1 3 2 -1 3 1 1 0 0 1 1 1 -1 -2 -1 1 1 1 -2 -1 -0 -1 2 1 1 -1 0 1 0 0 -1 -0 0 1 0 1 -0 -1 -1 -2 -2 -0 -3 -0 1
-3 -1 -3 3 1 2 1 1 2 3 2 1 2 2 -0 -0 2 0 -1 2 7 2 0 -2 -1 -3 -1 0 -1 2 -1 3 2 0 -0 2 1 -0 -1 0 1 -0 -1 -1 -2 0 -0 0 -1
-2 -1 1 1 2 2 2 2 1 2 2 2 1 1 0 -0 1 0 -0 4 4 -1 1 -5 1 2 -1 -0 2 4 1 0 3 2 -0 0 1 0 -1 -0 0 0 2 -0 -0 1 -1 1 -0
-0 -3 2 -0 3 5 1 1 2 1 2 2 3 2 2 0 2 1 2 2 0 3 2 2 1 1 -1 5 7 -2 -4 0 1 1 -1 2 -1 1 -1 -1 1 2 -0 1 -0 -0 1 -1 2
0 4 4 2 2 3 3 2 0 -1 3 4 2 2 5 1 4 4 1 0 1 1 1 0 1 2 1 1 -3 1 -1 10 -10 -4 -1 2 -1 0 1 0 3 1 2 2 3 -1 0 -0 2
4 -2 1 1 2 4 0 1 -0 -0 2 3 2 2 2 1 1 0 0 0 0 1 0 1 2 -1 1 1 -1 0 1 -0 2 -1 0 3 1 -3 -1 -2 -1 -1 1 0 -0 0 -1 2 -1
5 2 -2 2 -0 2 2 3 3 -0 1 4 1 1 2 2 3 -0 2 0 -2 -1 2 -1 2 1 -1 2 0 1 2 -1 1 -0 3 0 0 2 1 1 -0 -2 -0 -0 -0 1 1 -3 -2
1 -2 2 1 2 0 1 2 3 -0 4 2 -0 2 4 3 2 1 2 1 1 0 1 0 -0 1 1 1 0 3 2 -1 0 -1 1 2 1 3 2 1 0 -1 -1 -0 2 5 1 -1 0
-1 1 1 3 2 -1 -0 2 5 0 2 1 3 3 1 2 3 2 1 2 0 -0 1 0 -1 -0 1 1 1 -0 1 0 1 2 1 -1 1 -0 -0 0 1 -0 -1 0 2 3 3 1 -0
-2 -1 -1 -2 3 1 -1 -1 3 2 3 1 3 1 1 0 3 3 2 2 2 2 1 1 1 1 0 1 1 1 2 1 0 0 1 2 1 1 0 0 0 1 1 1 2 1 1 1 0
1 3 1 -1 -1 6 1 -1 5 3 -1 0 2 3 1 -1 1 1 -0 -0 2 1 2 2 1 1 1 1 1 1 1 0 0 -1 -1 -0 0 0 1 0 0 -1 1 1 1 1 -0 1 0
-1 0 -0 -1 -2 5 2 1 -1 6 2 3 -0 2 1 1 2 1 1 -1 1 1 1 1 2 0 1 2 2 -1 -0 -0 0 -1 -1 -0 -0 -0 0 0 0 0 -1 -1 -0 -0 1 -0 -1
-1 1 -1 3 -3 -0 1 4 -0 1 2 2 1 2 -0 2 1 -0 1 1 0 -0 1 1 0 -0 -2 -0 -1 -1 -2 -2 -1 -0 -0 -1 -2 -1 -2 -1 -3 -0 1 2 1 1 -1 -1 -1
0 -1 -4 -5 1 -2 -2 2 2 1 1 0 2 1 1 1 1 2 0 0 2 1 0 1 1 1 1 0 1 1 0 0 -0 -1 -1 -1 -1 -0 -1 -1 -3 -3 -4 -2 0 -0 1 -0 -0
-3 -0 -3 -5 1 2 -1 -3 1 1 1 1 3 1 2 -0 -0 -0 0 2 2 -0 -1 0 0 -0 1 -0 -1 -1 -1 -1 0 -0 -0 -0 -1 -1 1 -1 -4 -4 -2 -1 -4 -2 -1 -1 1
-4 -2 0 -2 -4 -3 1 -5 -2 -4 4 2 -1 -2 2 1 -1 0 2 1 -1 -0 -0 -0 0 -1 -1 0 0 -1 -1 -3 -3 -2 -2 -2 -2 -4 -2 -2 -2 -5 -1 -4 -1 -1 -0 1 -2
-3 -2 -2 2 -4 -7 -1 6 -3 -0 0 2 2 -0 2 1 -1 1 3 0 -2 -1 1 -1 -1 -1 1 -0 -1 1 0 -2 -3 -4 -4 -2 0 -2 -1 1 -0 -1 -2 -4 -3 -4 -3 1 2
-0 0 -0 -4 -1 -4 1 5 -3 4 2 -4 2 2 2 4 -1 1 0 0 -1 0 -1 -1 -1 -1 -1 1 1 -1 -0 0 0 -3 -3 -4 -2 -1 -1 -1 -1 -1 -1 -0 -1 -3 -5 -1 -3
-1 1 -2 0 -3 -4 6 -15 -2 -4 3 2 4 0 -1 3 0 1 1 1 -0 -1 -0 -2 -1 -1 -1 -1 -1 -0 1 2 -3 -2 -2 -3 -5 -2 -4 -3 -3 -2 -1 1 1 -2 -1 -3 -0
-0 0 -1 1 2 -10 5 -6 5 -5 -0 6 3 3 0 1 0 -2 0 1 -1 -0 -2 -0 -3 -2 -2 -3 -1 1 -1 -0 3 -2 3 -1 -2 -4 -3 -4 -1 0 -1 0 1 0 -5 -2 -4
-2 -5 -1 -2 -3 -20 12 -4 9 5 8 0 5 3 1 -1 0 -1 -1 -0 -1 -1 -2 -1 -3 -2 -1 -2 -4 -2 -2 0 2 -3 -1 -0 -0 1 -1 -3 -2 -1 1 -0 -2 -2 -2 -0 -3
-2 -0 -4 -5 -3 -9 3 -16 16 2 8 5 3 3 5 4 2 -1 0 -0 -1 -2 -1 -1 0 -3 -2 -2 -3 -4 -4 -1 -1 -2 -1 -1 1 -0 -0 -1 -1 0 -0 -0 1 0 -1 -2 -2
-3 -2 -4 -5 -4 -7 -4 -16 2 6 6 6 4 2 1 5 2 0 1 0 2 -1 -2 -1 0 -2 -3 -3 -3 -5 -2 -1 -3 0 -0 1 0 1 -0 -4 -4 -2 -3 -3 1 3 2 -1 1
1 -3 -0 -6 -3 -6 2 -1 5 4 3 8 5 4 5 1 -1 1 -0 2 0 -2 -1 0 -2 -3 -3 -4 -0 -4 -3 -3 -0 -2 -1 2 -1 -0 -0 -4 -5 -5 -5 -2 -2 3 5 -1 1
1 0 -0 -0 -11 -5 -5 -4 2 5 0 0 6 7 3 1 -2 -1 -2 1 -1 -3 -1 -2 -2 -2 -3 -3 -1 -1 -2 -4 -2 -0 0 -2 -1 -5 -4 -6 -3 -1 -2 -2 -2 2 3 -0 3
1 1 -2 2 -5 -5 -4 2 3 1 -3 2 1 5 -1 0 2 0 -0 2 -1 -1 -1 -2 -1 -2 -4 -4 -2 -2 -1 -1 -2 0 -1 -3 -5 -6 -1 -2 -2 -2 -1 -2 -0 3 5 1 3
2 1 2 -5 1 -7 -8 5 0 -5 3 -2 4 5 9 1 2 -1 -1 -3 -2 -0 -1 -1 -2 -3 -3 -3 -2 -1 -1 0 -0 -1 -5 -4 -2 -4 -0 -4 -2 -1 -1 -1 -2 -1 3 2 1
Height
5800 5800 5799 5799 5801 5800 5801 5802 5803 5805 5807 5809 5809 5812 5815 5815 5817 5821 5822 5823 5824 5824 5824 5826 5826 5827 5828 5829 5831 5832 5833 5834 5835 5836 5836 5837 5838 5839 5839 5840 5840 5841 5842 5842 5843 5843 5844 5844 5845
5797 5797 5797 5796 5796 5797 5799 5799 5800 5801 5802 5803 5803 5805 5807 5809 5811 5813 5816 5818 5820 5819 5819 5820 5821 5823 5824 5825 5826 5828 5829 5830 5831 5832 5833 5834 5834 5836 5836 5837 5838 5838 5839 5840 5841 5842 5842 5843 5843
5795 5794 5794 5793 5793 5794 5795 5795 5796 5797 5797 5799 5800 5800 5801 5803 5805 5807 5810 5812 5814 5812 5813 5815 5817 5818 5819 5821 5822 5823 5824 5826 5826 5827 5828 5830 5831 5832 5833 5834 5835 5836 5837 5838 5839 5840 5841 5841 5842
5791 5791 5791 5789 5789 5789 5790 5790 5792 5792 5793 5794 5795 5796 5798 5798 5800 5802 5805 5806 5805 5805 5807 5810 5812 5813 5814 5815 5818 5819 5820 5821 5822 5823 5825 5826 5827 5828 5829 5830 5831 5833 5834 5835 5836 5837 5839 5839 5840
5788 5787 5786 5785 5785 5785 5784 5785 5786 5787 5789 5790 5790 5792 5793 5794 5796 5798 5800 5802 5799 5801 5803 5805 5807 5808 5810 5811 5812 5813 5814 5815 5817 5819 5820 5821 5823 5825 5826 5827 5828 5829 5831 5832 5833 5835 5836 5837 5838
5783 5782 5781 5780 5780 5780 5780 5780 5780 5781 5783 5785 5786 5787 5789 5790 5792 5793 5795 5797 5795 5796 5799 5800 5802 5803 5806 5806 5808 5807 5809 5811 5812 5815 5816 5817 5819 5820 5822 5823 5825 5826 5827 5828 5829 5831 5832 5834 5835
5778 5776 5775 5774 5774 5774 5775 5775 5775 5776 5777 5779 5781 5782 5785 5786 5787 5789 5790 5791 5792 5793 5794 5795 5795 5798 5800 5802 5802 5801 5802 5805 5808 5810 5810 5811 5813 5815 5817 5818 5820 5821 5823 5824 5826 5827 5828 5830 5832
5772 5769 5769 5768 5768 5768 5769 5769 5769 5771 5773 5774 5775 5778 5780 5781 5782 5784 5786 5786 5787 5788 5789 5790 5791 5793 5794 5796 5797 5798 5800 5800 5802 5805 5805 5806 5808 5809 5811 5813 5815 5816 5817 5819 5820 5822 5823 5826 5827
5763 5763 5763 5763 5762 5761 5762 5762 5763 5765 5768 5769 5770 5772 5774 5776 5778 5779 5781 5782 5783 5784 5786 5787 5788 5789 5790 5792 5792 5793 5795 5797 5798 5800 5801 5801 5802 5804 5805 5807 5809 5811 5812 5814 5815 5816 5817 5819 5821
5757 5759 5757 5757 5757 5756 5756 5757 5758 5761 5762 5764 5765 5766 5768 5770 5773 5774 5776 5777 5779 5780 5781 5783 5784 5785 5786 5787 5788 5789 5791 5793 5794 5795 5796 5797 5797 5799 5801 5802 5803 5805 5806 5807 5809 5811 5811 5813 5815
5754 5752 5750 5751 5751 5752 5752 5752 5753 5755 5757 5758 5760 5761 5763 5765 5767 5769 5771 5772 5773 5775 5777 5779 5781 5781 5782 5783 5784 5785 5787 5788 5789 5791 5791 5792 5793 5794 5795 5796 5797 5799 5800 5801 5802 5803 5805 5807 5809
5749 5746 5745 5746 5746 5747 5748 5748 5749 5750 5751 5753 5755 5757 5758 5760 5762 5764 5766 5767 5768 5770 5772 5774 5775 5776 5777 5778 5780 5781 5783 5784 5785 5786 5787 5787 5788 5789 5790 5791 5792 5793 5794 5795 5796 5797 5798 5800 5801
5744 5742 5741 5741 5741 5742 5742 5744 5745 5745 5747 5749 5750 5752 5754 5756 5757 5759 5762 5763 5764 5766 5768 5769 5770 5772 5773 5775 5776 5778 5779 5779 5781 5781 5782 5782 5783 5783 5784 5785 5785 5786 5787 5789 5789 5790 5791 5792 5793
5739 5737 5737 5737 5738 5738 5738 5739 5741 5743 5744 5746 5748 5749 5751 5753 5755 5756 5758 5760 5761 5763 5764 5765 5766 5768 5770 5771 5773 5774 5774 5775 5776 5776 5777 5777 5778 5778 5779 5779 5780 5780 5781 5781 5782 5782 5783 5784 5785
5735 5733 5733 5734 5734 5734 5735 5737 5739 5740 5742 5744 5745 5747 5749 5751 5752 5754 5755 5757 5758 5759 5760 5761 5763 5765 5766 5767 5767 5769 5770 5770 5771 5772 5772 5772 5772 5772 5772 5772 5773 5774 5775 5775 5775 5775 5775 5775 5776
5730 5729 5729 5729 5730 5731 5733 5735 5737 5738 5740 5741 5743 5745 5747 5748 5750 5751 5752 5753 5755 5756 5757 5758 5759 5760 5761 5762 5763 5763 5764 5765 5765 5765 5765 5765 5765 5765 5764 5764 5764 5765 5766 5767 5767 5767 5767 5767 5768
5726 5724 5725 5726 5727 5728 5730 5732 5734 5735 5737 5740 5741 5742 5744 5745 5746 5747 5748 5749 5751 5752 5753 5753 5754 5755 5755 5756 5756 5756 5756 5757 5757 5757 5757 5758 5758 5758 5757 5757 5756 5757 5757 5757 5757 5757 5757 5757 5758
5722 5720 5721 5723 5724 5725 5726 5727 5730 5732 5734 5736 5738 5740 5740 5742 5743 5743 5744 5745 5746 5746 5747 5748 5749 5749 5749 5749 5749 5749 5749 5749 5749 5749 5748 5748 5748 5748 5748 5748 5747 5747 5747 5746 5747 5747 5747 5747 5746
5717 5716 5718 5719 5720 5721 5722 5723 5725 5728 5730 5732 5734 5736 5737 5738 5739 5739 5741 5741 5741 5742 5742 5742 5742 5742 5743 5743 5743 5742 5742 5741 5741 5740 5739 5739 5738 5737 5737 5737 5736 5736 5736 5735 5735 5735 5735 5736 5735
5713 5712 5713 5714 5715 5716 5717 5718 5720 5723 5725 5727 5729 5732 5733 5734 5735 5736 5736 5737 5737 5737 5737 5736 5736 5736 5736 5736 5735 5735 5735 5733 5732 5730 5729 5728 5728 5727 5726 5725 5724 5724 5724 5723 5723 5723 5723 5724 5723
5709 5708 5708 5708 5709 5711 5711 5714 5716 5718 5721 5722 5724 5725 5728 5729 5730 5731 5731 5731 5731 5731 5730 5730 5729 5729 5729 5728 5728 5727 5726 5725 5723 5720 5718 5716 5715 5714 5713 5713 5712 5712 5712 5711 5711 5711 5711 5711 5711
5705 5703 5703 5702 5702 5705 5704 5707 5711 5713 5715 5717 5718 5720 5721 5723 5724 5724 5725 5725 5724 5724 5723 5723 5722 5721 5721 5720 5719 5718 5716 5715 5712 5710 5708 5706 5703 5702 5700 5700 5700 5700 5700 5699 5698 5697 5696 5696 5697
5701 5698 5697 5697 5696 5698 5699 5699 5705 5707 5709 5711 5712 5712 5714 5715 5716 5716 5717 5717 5716 5716 5716 5715 5714 5713 5712 5710 5709 5707 5705 5704 5702 5699 5697 5694 5693 5691 5689 5688 5688 5688 5687 5685 5684 5682 5681 5681 5681
5693 5692 5690 5689 5689 5690 5693 5693 5695 5700 5704 5704 5706 5706 5706 5706 5707 5707 5707 5707 5708 5707 5707 5706 5705 5705 5703 5701 5698 5696 5694 5692 5690 5687 5685 5684 5682 5680 5678 5677 5676 5674 5673 5670 5668 5666 5665 5665 5665
5686 5686 5683 5681 5680 5682 5685 5685 5686 5691 5694 5697 5698 5698 5698 5698 5699 5698 5698 5698 5698 5698 5698 5697 5696 5695 5693 5691 5689 5686 5683 5680 5677 5675 5674 5672 5670 5668 5666 5664 5662 5659 5657 5654 5652 5649 5648 5648 5650
5677 5677 5677 5673 5672 5674 5674 5673 5678 5683 5684 5687 5688 5688 5690 5690 5690 5690 5689 5688 5688 5688 5688 5687 5686 5685 5684 5682 5678 5675 5672 5669 5666 5664 5663 5662 5660 5657 5653 5650 5647 5643 5639 5637 5634 5633 5632 5632 5635
5669 5669 5668 5666 5665 5663 5665 5666 5669 5672 5675 5675 5677 5678 5679 5679 5680 5681 5681 5679 5679 5678 5677 5677 5676 5675 5674 5672 5670 5665 5662 5659 5656 5654 5653 5650 5647 5644 5639 5634 5629 5624 5621 5618 5616 5616 5616 5617 5619
5660 5660 5659 5657 5656 5655 5655 5657 5657 5659 5661 5662 5664 5666 5667 5668 5668 5669 5670 5670 5669 5668 5668 5667 5666 5665 5664 5662 5659 5655 5651 5649 5647 5645 5641 5638 5634 5629 5623 5616 5610 5605 5601 5599 5599 5599 5600 5601 5602
5652 5651 5650 5649 5648 5647 5646 5648 5647 5649 5652 5653 5653 5654 5656 5658 5658 5659 5659 5660 5660 5659 5659 5658 5657 5656 5654 5651 5648 5645 5642 5640 5637 5634 5631 5626 5620 5613 5606 5599 5593 5589 5585 5581 5580 5581 5582 5584 5586
5644 5643 5640 5638 5640 5638 5637 5640 5641 5640 5642 5644 5643 5644 5645 5647 5648 5648 5649 5649 5649 5649 5649 5648 5647 5645 5642 5640 5637 5635 5632 5630 5627 5624 5619 5614 5605 5599 5593 5587 5582 5577 5573 5569 5566 5566 5567 5570 5573